Location: Bouchavesnes-Bergen
(49.9859°N, 2.9203°E)
Time: 05:06:04
(UTC+00:00)

ISS - Pass Details

Date: 09 March 2021
Orbit: 418 x 422 km, 51.6° (Epoch: 12 April)

Event Time Altitude Azimuth Distance (km) Brightness Sun altitude
Exits shadow 05:30:48 11° 270° (W) 1,457 -1.7 -7.9°
Maximum altitude 05:33:26 24° 216° (SW) 923 -2.4 -7.5°
Drops below altitude 10° 05:36:11 10° 161° (SSE) 1,493 -0.7 -7.0°
Sets 05:38:31 0° 147° (SSE) 2,353 0.5 -6.6°
